| time (UTC) | temp C | wind direction | speed KPH | gust KPH | rain 1hr cm | rain 24hr cm | rain mn cm | humidity % | barometer mb |
| 20260507085750 | 12 | 327 | 0.0 | 3.2 | 0.00 | 0.46 | 0.00 | 87 | 1007.9 |
| 20260507085241 | 12 | 327 | 0.0 | 3.2 | 0.00 | 0.46 | 0.00 | 87 | 1007.9 |
| 20260507084744 | 12 | 327 | 0.0 | 0.0 | 0.00 | 0.46 | 0.00 | 87 | 1007.9 |
| 20260507084245 | 12 | 327 | 0.0 | 0.0 | 0.00 | 0.46 | 0.00 | 87 | 1007.8 |
| 20260507083741 | 12 | 327 | 0.0 | 0.0 | 0.00 | 0.46 | 0.00 | 87 | 1007.8 |
| 20260507083242 | 12 | 327 | 0.0 | 1.6 | 0.00 | 0.46 | 0.00 | 87 | 1007.8 |
| 20260507082744 | 12 | 327 | 0.0 | 0.0 | 0.00 | 0.46 | 0.00 | 86 | 1007.4 |
| 20260507082247 | 12 | 327 | 0.0 | 0.0 | 0.00 | 0.46 | 0.00 | 86 | 1007.4 |
| 20260507081741 | 12 | 327 | 0.0 | 0.0 | 0.00 | 0.46 | 0.00 | 86 | 1007.4 |
| 20260507081244 | 12 | 327 | 0.0 | 1.6 | 0.00 | 0.46 | 0.00 | 86 | 1007.4 |
| 20260507080742 | 12 | 327 | 0.0 | 4.8 | 0.00 | 0.46 | 0.00 | 86 | 1007.4 |
| 20260507080244 | 12 | 327 | 0.0 | 4.8 | 0.00 | 0.46 | 0.00 | 86 | 1007.4 |
| 20260507075741 | 12 | 327 | 0.0 | 6.4 | 0.00 | 0.46 | 0.00 | 86 | 1007.3 |
| 20260507075241 | 12 | 327 | 0.0 | 9.7 | 0.00 | 0.46 | 0.00 | 86 | 1007.3 |
| 20260507074741 | 12 | 317 | 6.4 | 8.0 | 0.00 | 0.46 | 0.00 | 86 | 1007.3 |
| 20260507074247 | 12 | 312 | 4.8 | 6.4 | 0.00 | 0.46 | 0.00 | 86 | 1007.3 |
| 20260507073741 | 12 | 312 | 1.6 | 4.8 | 0.00 | 0.46 | 0.00 | 86 | 1007.3 |
| 20260507073244 | 12 | 311 | 0.0 | 9.7 | 0.00 | 0.46 | 0.00 | 85 | 1007.3 |
| 20260507072743 | 12 | 355 | 8.0 | 11.3 | 0.00 | 0.46 | 0.00 | 85 | 1007.2 |
| 20260507072244 | 12 | 13 | 1.6 | 12.9 | 0.00 | 0.46 | 0.00 | 85 | 1007.2 |
| 20260507071741 | 12 | 329 | 6.4 | 16.1 | 0.00 | 0.46 | 0.00 | 86 | 1007.2 |
| 20260507071244 | 12 | 348 | 12.9 | 14.5 | 0.00 | 0.46 | 0.00 | 86 | 1007.4 |
| 20260507070741 | 12 | 355 | 6.4 | 17.7 | 0.00 | 0.46 | 0.00 | 86 | 1007.4 |
| 20260507070241 | 12 | 15 | 1.6 | 17.7 | 0.00 | 0.46 | 0.00 | 87 | 1007.4 |
| 20260507065741 | 12 | 0 | 8.0 | 19.3 | 0.00 | 0.46 | 0.00 | 87 | 1007.5 |
| 20260507065241 | 12 | 10 | 1.6 | 14.5 | 0.00 | 0.46 | 0.00 | 87 | 1007.5 |
| 20260507064747 | 13 | 11 | 1.6 | 9.7 | 0.00 | 0.46 | 0.00 | 88 | 1007.5 |
| 20260507064249 | 13 | 11 | 1.6 | 8.0 | 0.00 | 0.46 | 0.00 | 88 | 1006.9 |
| 20260507063744 | 13 | 9 | 1.6 | 9.7 | 0.00 | 0.46 | 0.00 | 88 | 1006.9 |
| 20260507063244 | 13 | 9 | 1.6 | 12.9 | 0.00 | 0.46 | 0.00 | 88 | 1006.9 |
| 20260507062745 | 13 | 5 | 6.4 | 9.7 | 0.00 | 0.46 | 0.00 | 88 | 1007.4 |
| 20260507062241 | 13 | 5 | 3.2 | 8.0 | 0.00 | 0.46 | 0.00 | 88 | 1007.4 |
| 20260507061742 | 13 | 5 | 6.4 | 6.4 | 0.03 | 0.46 | 0.00 | 88 | 1007.4 |
| 20260507061248 | 13 | 5 | 0.0 | 6.4 | 0.03 | 0.46 | 0.00 | 88 | 1007.1 |
| 20260507060745 | 13 | 5 | 6.4 | 11.3 | 0.03 | 0.46 | 0.00 | 87 | 1007.1 |
| 20260507060242 | 13 | 0 | 6.4 | 9.7 | 0.03 | 0.46 | 0.00 | 87 | 1007.1 |
| 20260507055747 | 14 | 355 | 0.0 | 4.8 | 0.03 | 0.46 | 0.00 | 87 | 1007.4 |
| 20260507055244 | 14 | 355 | 0.0 | 6.4 | 0.03 | 0.46 | 0.00 | 87 | 1007.4 |
| 20260507054744 | 14 | 355 | 0.0 | 6.4 | 0.03 | 0.46 | 0.00 | 86 | 1007.4 |
| 20260507054241 | 14 | 355 | 0.0 | 6.4 | 0.03 | 0.46 | 0.00 | 85 | 1007.5 |
| 20260507053741 | 14 | 355 | 3.2 | 8.0 | 0.00 | 0.43 | 0.00 | 85 | 1007.5 |
| 20260507053243 | 14 | 350 | 6.4 | 8.0 | 0.00 | 0.43 | 0.00 | 84 | 1007.5 |
| 20260507052744 | 14 | 346 | 0.0 | 4.8 | 0.00 | 0.43 | 0.00 | 84 | 1007.4 |
| 20260507052241 | 15 | 346 | 0.0 | 4.8 | 0.00 | 0.43 | 0.00 | 84 | 1007.4 |
| 20260507051741 | 15 | 346 | 0.0 | 4.8 | 0.00 | 0.38 | 0.00 | 83 | 1007.4 |
| 20260507051241 | 15 | 346 | 4.8 | 14.5 | 0.00 | 0.38 | 0.00 | 83 | 1007.8 |
| 20260507050741 | 15 | 17 | 12.9 | 17.7 | 0.00 | 0.38 | 0.00 | 81 | 1007.8 |
| 20260507050242 | 15 | 329 | 1.6 | 9.7 | 0.00 | 0.38 | 0.00 | 80 | 1007.8 |
| 20260507045750 | 15 | 0 | 0.0 | 11.3 | 0.00 | 0.38 | 0.00 | 79 | 1007.3 |
| 20260507045247 | 15 | 340 | 8.0 | 9.7 | 0.00 | 0.38 | 0.00 | 77 | 1007.3 |
| 20260507044741 | 15 | 347 | 3.2 | 12.9 | 0.00 | 0.38 | 0.00 | 77 | 1007.3 |
| 20260507044241 | 15 | 5 | 12.9 | 14.5 | 0.00 | 0.38 | 0.00 | 76 | 1007.4 |
| 20260507043749 | 15 | 16 | 4.8 | 16.1 | 0.00 | 0.38 | 0.00 | 76 | 1007.4 |
| 20260507043241 | 16 | 0 | 6.4 | 9.7 | 0.00 | 0.38 | 0.00 | 75 | 1007.4 |
| 20260507042741 | 16 | 322 | 8.0 | 14.5 | 0.00 | 0.38 | 0.00 | 75 | 1007.5 |
| 20260507042241 | 16 | 349 | 3.2 | 20.9 | 0.00 | 0.38 | 0.00 | 75 | 1007.5 |
| 20260507041741 | 16 | 284 | 11.3 | 19.3 | 0.00 | 0.38 | 0.00 | 75 | 1007.5 |
| 20260507041242 | 16 | 344 | 1.6 | 11.3 | 0.00 | 0.38 | 0.00 | 75 | 1006.7 |
| 20260507040751 | 17 | 0 | 4.8 | 8.0 | 0.00 | 0.38 | 0.00 | 75 | 1006.7 |
| 20260507040241 | 17 | 0 | 1.6 | 9.7 | 0.00 | 0.38 | 0.00 | 75 | 1006.7 |
| 20260507035744 | 17 | 348 | 4.8 | 9.7 | 0.00 | 0.38 | 0.00 | 74 | 1006.5 |
| 20260507035249 | 17 | 355 | 4.8 | 9.7 | 0.00 | 0.38 | 0.00 | 74 | 1006.5 |
| 20260507034744 | 17 | 338 | 4.8 | 9.7 | 0.00 | 0.38 | 0.00 | 73 | 1006.5 |
| 20260507034242 | 17 | 340 | 4.8 | 8.0 | 0.00 | 0.38 | 0.00 | 73 | 1006.9 |
| 20260507033750 | 17 | 331 | 1.6 | 11.3 | 0.00 | 0.38 | 0.00 | 73 | 1006.9 |
| 20260507033245 | 17 | 338 | 6.4 | 12.9 | 0.00 | 0.38 | 0.00 | 73 | 1006.9 |
| 20260507032744 | 17 | 16 | 4.8 | 14.5 | 0.00 | 0.38 | 0.00 | 73 | 1006.6 |
| 20260507032247 | 17 | 350 | 1.6 | 8.0 | 0.00 | 0.38 | 0.00 | 73 | 1006.6 |
| 20260507031741 | 17 | 355 | 3.2 | 6.4 | 0.00 | 0.38 | 0.00 | 72 | 1006.6 |
| 20260507031248 | 17 | 355 | 4.8 | 9.7 | 0.00 | 0.38 | 0.00 | 72 | 1006.4 |
| 20260507030741 | 17 | 344 | 0.0 | 6.4 | 0.00 | 0.38 | 0.00 | 72 | 1006.4 |
| 20260507030244 | 17 | 344 | 0.0 | 9.7 | 0.00 | 0.38 | 0.00 | 72 | 1006.4 |
| 20260507025741 | 17 | 323 | 11.3 | 11.3 | 0.00 | 0.38 | 0.00 | 73 | 1006.3 |
| 20260507025244 | 17 | 9 | 6.4 | 9.7 | 0.00 | 0.38 | 0.00 | 73 | 1006.3 |
| 20260507024745 | 17 | 9 | 0.0 | 8.0 | 0.00 | 0.38 | 0.00 | 73 | 1006.3 |
| 20260507024244 | 17 | 13 | 6.4 | 14.5 | 0.00 | 0.38 | 0.00 | 73 | 1006.1 |
| 20260507023741 | 17 | 346 | 6.4 | 12.9 | 0.00 | 0.38 | 0.00 | 74 | 1006.1 |
| 20260507023248 | 18 | 355 | 9.7 | 19.3 | 0.00 | 0.38 | 0.00 | 74 | 1006.1 |
| 20260507022751 | 18 | 5 | 8.0 | 11.3 | 0.00 | 0.38 | 0.00 | 76 | 1005.9 |
| 20260507022244 | 18 | 0 | 3.2 | 19.3 | 0.00 | 0.38 | 0.00 | 77 | 1005.9 |
| 20260507021747 | 18 | 5 | 3.2 | 12.9 | 0.00 | 0.38 | 0.00 | 78 | 1005.9 |
| 20260507021241 | 18 | 10 | 1.6 | 14.5 | 0.00 | 0.38 | 0.00 | 78 | 1006.2 |
| 20260507020741 | 18 | 325 | 9.7 | 9.7 | 0.00 | 0.38 | 0.00 | 77 | 1006.2 |
| 20260507020247 | 19 | 307 | 6.4 | 8.0 | 0.00 | 0.38 | 0.00 | 77 | 1006.2 |
| 20260507015741 | 19 | 307 | 0.0 | 9.7 | 0.00 | 0.38 | 0.00 | 77 | 1005.7 |
| 20260507015247 | 19 | 307 | 1.6 | 4.8 | 0.00 | 0.38 | 0.00 | 77 | 1005.7 |
| 20260507014747 | 19 | 307 | 0.0 | 12.9 | 0.00 | 0.38 | 0.00 | 76 | 1005.7 |
| 20260507014241 | 19 | 286 | 0.0 | 4.8 | 0.00 | 0.38 | 0.00 | 76 | 1006.0 |
| 20260507013744 | 19 | 286 | 0.0 | 9.7 | 0.00 | 0.38 | 0.00 | 77 | 1006.0 |
| 20260507013241 | 19 | 286 | 3.2 | 12.9 | 0.00 | 0.38 | 0.00 | 77 | 1006.0 |
| 20260507012741 | 19 | 261 | 8.0 | 12.9 | 0.00 | 0.38 | 0.00 | 77 | 1006.3 |
| 20260507012244 | 20 | 230 | 4.8 | 9.7 | 0.00 | 0.38 | 0.00 | 77 | 1006.3 |
| 20260507011747 | 20 | 227 | 11.3 | 16.1 | 0.00 | 0.38 | 0.00 | 77 | 1006.3 |
| 20260507011241 | 20 | 171 | 3.2 | 6.4 | 0.00 | 0.38 | 0.00 | 77 | 1005.8 |
| 20260507010744 | 20 | 171 | 0.0 | 0.0 | 0.00 | 0.38 | 0.00 | 77 | 1005.8 |
| 20260507010244 | 20 | 171 | 0.0 | 0.0 | 0.00 | 0.38 | 0.00 | 77 | 1005.8 |
| 20260507005741 | 20 | 171 | 0.0 | 0.0 | 0.00 | 0.38 | 0.00 | 77 | 1005.8 |
| 20260507005247 | 20 | 171 | 0.0 | 0.0 | 0.00 | 0.38 | 0.00 | 76 | 1005.8 |
| 20260507004741 | 20 | 171 | 0.0 | 0.0 | 0.00 | 0.38 | 0.00 | 76 | 1005.8 |
| 20260507004250 | 20 | 171 | 0.0 | 0.0 | 0.00 | 0.38 | 0.00 | 76 | 1005.7 |
| 20260507003742 | 20 | 171 | 0.0 | 0.0 | 0.00 | 0.38 | 0.00 | 76 | 1005.7 |
| 20260507003244 | 20 | 171 | 0.0 | 3.2 | 0.00 | 0.38 | 0.00 | 76 | 1005.7 |
| 20260507002744 | 20 | 171 | 1.6 | 6.4 | 0.00 | 0.38 | 0.00 | 76 | 1005.3 |
| 20260507002241 | 20 | 171 | 3.2 | 6.4 | 0.00 | 0.38 | 0.00 | 75 | 1005.3 |
| 20260507001742 | 20 | 171 | 0.0 | 8.0 | 0.00 | 0.38 | 0.00 | 75 | 1005.3 |
| 20260507001244 | 20 | 171 | 0.0 | 3.2 | 0.00 | 0.38 | 0.00 | 75 | 1005.3 |
| 20260507000741 | 20 | 171 | 3.2 | 9.7 | 0.00 | 0.38 | 0.00 | 75 | 1005.3 |
| 20260507000247 | 20 | 172 | 0.0 | 3.2 | 0.00 | 0.38 | 0.00 | 75 | 1005.3 |
| 20260506235741 | 20 | 172 | 0.0 | 6.4 | 0.00 | 0.38 | 0.00 | 75 | 1005.1 |
| 20260506235247 | 20 | 172 | 0.0 | 6.4 | 0.00 | 0.38 | 0.00 | 74 | 1005.1 |
| 20260506234748 | 20 | 172 | 3.2 | 6.4 | 0.00 | 0.38 | 0.00 | 74 | 1005.1 |
| 20260506234241 | 20 | 172 | 3.2 | 11.3 | 0.00 | 0.38 | 0.00 | 74 | 1005.2 |
| 20260506233741 | 20 | 175 | 3.2 | 8.0 | 0.00 | 0.38 | 0.00 | 74 | 1005.2 |
| 20260506233244 | 20 | 175 | 1.6 | 6.4 | 0.00 | 0.38 | 0.00 | 73 | 1005.2 |
| 20260506232745 | 20 | 175 | 3.2 | 6.4 | 0.00 | 0.38 | 0.00 | 73 | 1004.7 |
| 20260506232244 | 21 | 175 | 6.4 | 8.0 | 0.00 | 0.38 | 0.00 | 73 | 1004.7 |
| 20260506231744 | 21 | 175 | 0.0 | 0.0 | 0.00 | 0.38 | 0.00 | 73 | 1004.7 |
| 20260506231245 | 21 | 175 | 0.0 | 3.2 | 0.00 | 0.38 | 0.00 | 73 | 1004.8 |
| 20260506230745 | 21 | 175 | 3.2 | 8.0 | 0.00 | 0.38 | 0.00 | 73 | 1004.8 |
| 20260506230247 | 21 | 175 | 1.6 | 9.7 | 0.00 | 0.38 | 0.00 | 72 | 1004.8 |
| 20260506225744 | 21 | 179 | 1.6 | 9.7 | 0.00 | 0.38 | 0.00 | 72 | 1004.5 |
| 20260506225248 | 21 | 180 | 6.4 | 8.0 | 0.00 | 0.38 | 0.00 | 72 | 1004.5 |
| 20260506224750 | 21 | 179 | 6.4 | 9.7 | 0.00 | 0.38 | 0.00 | 72 | 1004.5 |
| 20260506224251 | 21 | 179 | 6.4 | 8.0 | 0.00 | 0.38 | 0.00 | 71 | 1004.7 |
| 20260506223741 | 21 | 179 | 1.6 | 6.4 | 0.00 | 0.38 | 0.00 | 71 | 1004.7 |
| 20260506223241 | 21 | 180 | 1.6 | 8.0 | 0.00 | 0.38 | 0.00 | 71 | 1004.7 |
| 20260506222741 | 21 | 179 | 8.0 | 8.0 | 0.00 | 0.38 | 0.00 | 71 | 1004.8 |
| 20260506222241 | 21 | 180 | 1.6 | 8.0 | 0.00 | 0.38 | 0.00 | 70 | 1004.8 |
| 20260506221744 | 21 | 180 | 3.2 | 8.0 | 0.00 | 0.38 | 0.00 | 70 | 1004.8 |
| 20260506221244 | 21 | 180 | 3.2 | 8.0 | 0.00 | 0.38 | 0.00 | 70 | 1004.7 |
| 20260506220741 | 21 | 180 | 3.2 | 8.0 | 0.00 | 0.38 | 0.00 | 71 | 1004.7 |
| 20260506220241 | 21 | 179 | 6.4 | 11.3 | 0.00 | 0.38 | 0.00 | 71 | 1004.7 |
| 20260506215742 | 21 | 165 | 0.0 | 8.0 | 0.00 | 0.38 | 0.00 | 70 | 1004.7 |
| 20260506215247 | 21 | 165 | 1.6 | 8.0 | 0.00 | 0.38 | 0.00 | 70 | 1004.7 |
| 20260506214741 | 21 | 165 | 6.4 | 9.7 | 0.00 | 0.38 | 0.00 | 70 | 1004.7 |
| 20260506214245 | 21 | 165 | 8.0 | 11.3 | 0.00 | 0.38 | 0.00 | 71 | 1004.5 |
| 20260506213750 | 21 | 152 | 0.0 | 11.3 | 0.00 | 0.38 | 0.00 | 70 | 1004.5 |
| 20260506213247 | 21 | 150 | 6.4 | 9.7 | 0.00 | 0.38 | 0.00 | 70 | 1004.5 |
| 20260506212741 | 21 | 158 | 8.0 | 9.7 | 0.00 | 0.38 | 0.00 | 70 | 1004.5 |
| 20260506212250 | 21 | 158 | 3.2 | 11.3 | 0.00 | 0.38 | 0.00 | 70 | 1004.5 |
| 20260506211742 | 21 | 163 | 1.6 | 8.0 | 0.00 | 0.38 | 0.00 | 70 | 1004.5 |
| 20260506211241 | 21 | 165 | 8.0 | 12.9 | 0.00 | 0.38 | 0.00 | 70 | 1004.2 |
| 20260506210744 | 21 | 200 | 0.0 | 20.9 | 0.00 | 0.38 | 0.00 | 70 | 1004.2 |
| 20260506210244 | 21 | 169 | 6.4 | 12.9 | 0.00 | 0.38 | 0.00 | 71 | 1004.2 |
| 20260506205741 | 21 | 162 | 6.4 | 11.3 | 0.00 | 0.38 | 0.00 | 71 | 1004.1 |
| 20260506205241 | 21 | 154 | 1.6 | 8.0 | 0.00 | 0.38 | 0.00 | 71 | 1004.1 |
| 20260506204744 | 21 | 154 | 3.2 | 12.9 | 0.00 | 0.38 | 0.00 | 70 | 1004.1 |
| 20260506204244 | 21 | 151 | 3.2 | 12.9 | 0.00 | 0.38 | 0.00 | 70 | 1004.2 |
| 20260506203744 | 21 | 197 | 4.8 | 11.3 | 0.00 | 0.38 | 0.00 | 69 | 1004.2 |
| 20260506203247 | 21 | 235 | 4.8 | 8.0 | 0.00 | 0.38 | 0.00 | 70 | 1004.2 |
| 20260506202742 | 21 | 211 | 4.8 | 11.3 | 0.00 | 0.38 | 0.00 | 69 | 1004.1 |
| 20260506202245 | 21 | 216 | 3.2 | 14.5 | 0.00 | 0.38 | 0.00 | 69 | 1004.1 |
| 20260506201741 | 21 | 180 | 3.2 | 11.3 | 0.00 | 0.38 | 0.00 | 69 | 1004.1 |
| 20260506201242 | 21 | 286 | 3.2 | 11.3 | 0.00 | 0.38 | 0.00 | 69 | 1004.2 |
| 20260506200741 | 21 | 142 | 8.0 | 14.5 | 0.00 | 0.38 | 0.00 | 69 | 1004.2 |
| 20260506200243 | 21 | 223 | 8.0 | 12.9 | 0.00 | 0.38 | 0.00 | 70 | 1004.2 |
| 20260506195741 | 21 | 211 | 4.8 | 16.1 | 0.00 | 0.38 | 0.00 | 70 | 1004.2 |
| 20260506195247 | 21 | 125 | 3.2 | 17.7 | 0.00 | 0.38 | 0.00 | 71 | 1004.2 |
| 20260506194741 | 21 | 169 | 8.0 | 12.9 | 0.00 | 0.38 | 0.00 | 72 | 1004.2 |
| 20260506194251 | 21 | 235 | 6.4 | 16.1 | 0.00 | 0.38 | 0.00 | 74 | 1004.2 |
| 20260506193742 | 20 | 182 | 4.8 | 16.1 | 0.00 | 0.38 | 0.00 | 75 | 1004.2 |
| 20260506193241 | 20 | 269 | 3.2 | 11.3 | 0.00 | 0.38 | 0.00 | 76 | 1004.2 |
| 20260506192741 | 20 | 218 | 4.8 | 17.7 | 0.00 | 0.38 | 0.00 | 77 | 1004.3 |
| 20260506192241 | 20 | 271 | 4.8 | 11.3 | 0.00 | 0.38 | 0.00 | 79 | 1004.3 |
| 20260506191744 | 20 | 165 | 3.2 | 12.9 | 0.00 | 0.38 | 0.00 | 79 | 1004.3 |
| 20260506191244 | 19 | 150 | 6.4 | 11.3 | 0.00 | 0.38 | 0.00 | 80 | 1004.6 |
| 20260506190741 | 19 | 161 | 8.0 | 12.9 | 0.00 | 0.38 | 0.00 | 81 | 1004.6 |
| 20260506190241 | 19 | 171 | 1.6 | 9.7 | 0.00 | 0.38 | 0.00 | 82 | 1004.6 |
| 20260506185741 | 19 | 196 | 9.7 | 14.5 | 0.00 | 0.38 | 0.00 | 83 | 1004.8 |
| 20260506185241 | 18 | 152 | 12.9 | 16.1 | 0.00 | 0.38 | 0.00 | 83 | 1004.8 |
| 20260506184744 | 18 | 175 | 8.0 | 16.1 | 0.00 | 0.38 | 0.00 | 84 | 1004.8 |
| 20260506184241 | 18 | 145 | 6.4 | 16.1 | 0.00 | 0.38 | 0.00 | 85 | 1004.8 |
| 20260506183741 | 18 | 277 | 9.7 | 11.3 | 0.00 | 0.38 | 0.00 | 86 | 1004.8 |
| 20260506183241 | 18 | 257 | 0.0 | 16.1 | 0.00 | 0.38 | 0.00 | 86 | 1004.8 |
| 20260506182748 | 18 | 232 | 6.4 | 14.5 | 0.00 | 0.38 | 0.00 | 87 | 1005.0 |
| 20260506182242 | 18 | 296 | 3.2 | 14.5 | 0.00 | 0.38 | 0.00 | 88 | 1005.0 |
| 20260506181742 | 17 | 178 | 8.0 | 17.7 | 0.00 | 0.38 | 0.00 | 88 | 1005.0 |
| 20260506181241 | 17 | 213 | 3.2 | 16.1 | 0.00 | 0.38 | 0.00 | 88 | 1005.1 |
| 20260506180744 | 17 | 206 | 8.0 | 19.3 | 0.03 | 0.38 | 0.00 | 88 | 1005.1 |
| 20260506180241 | 17 | 159 | 3.2 | 16.1 | 0.03 | 0.38 | 0.00 | 89 | 1005.1 |
| 20260506175744 | 17 | 311 | 4.8 | 12.9 | 0.03 | 0.38 | 0.00 | 89 | 1005.1 |
| 20260506175247 | 17 | 128 | 6.4 | 17.7 | 0.03 | 0.38 | 0.00 | 89 | 1005.1 |
| 20260506174745 | 17 | 244 | 11.3 | 16.1 | 0.00 | 0.36 | 0.00 | 89 | 1005.1 |
| 20260506174241 | 17 | 207 | 8.0 | 19.3 | 0.00 | 0.36 | 0.00 | 90 | 1005.1 |
| 20260506173744 | 17 | 248 | 4.8 | 19.3 | 0.03 | 0.36 | 0.00 | 90 | 1005.1 |
| 20260506173244 | 17 | 137 | 8.0 | 16.1 | 0.03 | 0.36 | 0.00 | 90 | 1005.1 |
| 20260506172744 | 17 | 202 | 8.0 | 19.3 | 0.03 | 0.36 | 0.00 | 90 | 1005.3 |
| 20260506172244 | 17 | 181 | 8.0 | 19.3 | 0.03 | 0.36 | 0.00 | 91 | 1005.3 |
| 20260506171744 | 17 | 245 | 9.7 | 25.7 | 0.05 | 0.36 | 0.00 | 91 | 1005.3 |
| 20260506171244 | 17 | 279 | 6.4 | 17.7 | 0.05 | 0.36 | 0.00 | 91 | 1005.3 |
| 20260506170748 | 17 | 169 | 6.4 | 14.5 | 0.03 | 0.33 | 0.00 | 91 | 1005.3 |
| 20260506170245 | 17 | 300 | 12.9 | 16.1 | 0.03 | 0.33 | 0.00 | 91 | 1005.3 |
| 20260506165741 | 17 | 250 | 8.0 | 22.5 | 0.05 | 0.33 | 0.00 | 91 | 1005.6 |
| 20260506165242 | 16 | 228 | 4.8 | 19.3 | 0.05 | 0.33 | 0.00 | 91 | 1005.6 |
| 20260506164744 | 16 | 311 | 1.6 | 19.3 | 0.05 | 0.33 | 0.00 | 91 | 1005.6 |
| 20260506164241 | 16 | 163 | 9.7 | 17.7 | 0.08 | 0.33 | 0.00 | 91 | 1005.5 |
| 20260506163741 | 16 | 217 | 3.2 | 22.5 | 0.05 | 0.30 | 0.00 | 91 | 1005.5 |
| 20260506163242 | 16 | 221 | 8.0 | 20.9 | 0.05 | 0.30 | 0.00 | 91 | 1005.5 |
| 20260506162741 | 16 | 218 | 6.4 | 14.5 | 0.05 | 0.30 | 0.00 | 91 | 1005.6 |
| 20260506162241 | 16 | 231 | 9.7 | 20.9 | 0.08 | 0.30 | 0.00 | 90 | 1005.6 |
| 20260506161741 | 16 | 300 | 4.8 | 22.5 | 0.05 | 0.28 | 0.00 | 90 | 1005.6 |
| 20260506161241 | 16 | 186 | 11.3 | 19.3 | 0.08 | 0.28 | 0.00 | 90 | 1005.6 |
| 20260506160744 | 16 | 205 | 12.9 | 24.1 | 0.08 | 0.28 | 0.00 | 90 | 1005.6 |
| 20260506160241 | 16 | 187 | 6.4 | 25.7 | 0.08 | 0.28 | 0.00 | 90 | 1005.6 |
| 20260506155745 | 16 | 210 | 12.9 | 19.3 | 0.08 | 0.25 | 0.00 | 90 | 1005.7 |
| 20260506155241 | 16 | 190 | 1.6 | 14.5 | 0.08 | 0.25 | 0.00 | 90 | 1005.7 |
| 20260506154747 | 16 | 107 | 6.4 | 12.9 | 0.08 | 0.25 | 0.00 | 90 | 1005.7 |
| 20260506154241 | 16 | 115 | 12.9 | 17.7 | 0.08 | 0.23 | 0.00 | 90 | 1005.7 |
| 20260506153744 | 16 | 88 | 1.6 | 9.7 | 0.08 | 0.23 | 0.00 | 90 | 1005.7 |
| 20260506153248 | 16 | 171 | 3.2 | 16.1 | 0.08 | 0.23 | 0.00 | 90 | 1005.7 |
| 20260506152747 | 16 | 168 | 1.6 | 12.9 | 0.10 | 0.23 | 0.00 | 89 | 1006.2 |
| 20260506152244 | 16 | 188 | 8.0 | 19.3 | 0.08 | 0.20 | 0.00 | 89 | 1006.2 |
| 20260506151747 | 16 | 177 | 8.0 | 12.9 | 0.08 | 0.20 | 0.00 | 89 | 1006.2 |
| 20260506151244 | 16 | 150 | 8.0 | 19.3 | 0.08 | 0.18 | 0.00 | 89 | 1006.3 |
| 20260506150742 | 16 | 190 | 4.8 | 19.3 | 0.08 | 0.18 | 0.00 | 89 | 1006.3 |
| 20260506150247 | 16 | 142 | 1.6 | 16.1 | 0.08 | 0.18 | 0.00 | 88 | 1006.3 |
| 20260506145741 | 16 | 161 | 3.2 | 17.7 | 0.05 | 0.15 | 0.00 | 88 | 1006.6 |
| 20260506145241 | 16 | 231 | 3.2 | 17.7 | 0.05 | 0.15 | 0.00 | 88 | 1006.6 |
| 20260506144747 | 16 | 243 | 0.0 | 27.4 | 0.08 | 0.15 | 0.00 | 88 | 1006.6 |
| 20260506144241 | 16 | 225 | 1.6 | 22.5 | 0.05 | 0.13 | 0.00 | 87 | 1006.2 |
| 20260506143749 | 16 | 171 | 3.2 | 14.5 | 0.05 | 0.13 | 0.00 | 87 | 1006.2 |
| 20260506143248 | 16 | 217 | 3.2 | 20.9 | 0.05 | 0.13 | 0.00 | 87 | 1006.2 |
| 20260506142741 | 16 | 204 | 0.0 | 19.3 | 0.05 | 0.10 | 0.00 | 87 | 1006.2 |
| 20260506142242 | 16 | 147 | 8.0 | 14.5 | 0.05 | 0.10 | 0.00 | 86 | 1006.2 |
| 20260506141741 | 16 | 175 | 3.2 | 14.5 | 0.05 | 0.10 | 0.00 | 86 | 1006.2 |
| 20260506141241 | 16 | 179 | 14.5 | 14.5 | 0.03 | 0.08 | 0.00 | 86 | 1006.6 |
| 20260506140741 | 16 | 146 | 1.6 | 12.9 | 0.03 | 0.08 | 0.00 | 85 | 1006.6 |
| 20260506140247 | 16 | 215 | 9.7 | 14.5 | 0.03 | 0.08 | 0.00 | 85 | 1006.6 |
| 20260506135741 | 17 | 178 | 6.4 | 17.7 | 0.05 | 0.08 | 0.00 | 84 | 1006.7 |
| 20260506135241 | 17 | 196 | 3.2 | 22.5 | 0.05 | 0.08 | 0.00 | 84 | 1006.7 |
| 20260506134744 | 17 | 157 | 1.6 | 12.9 | 0.03 | 0.05 | 0.00 | 84 | 1006.7 |
| 20260506134241 | 17 | 163 | 0.0 | 17.7 | 0.05 | 0.05 | 0.00 | 83 | 1007.1 |
| 20260506133741 | 17 | 194 | 3.2 | 14.5 | 0.05 | 0.05 | 0.00 | 83 | 1007.1 |
| 20260506133247 | 17 | 129 | 3.2 | 14.5 | 0.05 | 0.05 | 0.00 | 82 | 1007.1 |
| 20260506132744 | 17 | 178 | 6.4 | 14.5 | 0.03 | 0.03 | 0.00 | 81 | 1006.8 |
| 20260506132245 | 17 | 236 | 6.4 | 14.5 | 0.03 | 0.03 | 0.00 | 81 | 1006.8 |
| 20260506131744 | 17 | 118 | 1.6 | 11.3 | 0.03 | 0.03 | 0.00 | 81 | 1006.8 |
| 20260506131248 | 17 | 153 | 0.0 | 8.0 | 0.03 | 0.03 | 0.00 | 80 | 1006.4 |
| 20260506130744 | 17 | 150 | 6.4 | 11.3 | 0.03 | 0.03 | 0.00 | 80 | 1006.4 |
| 20260506130241 | 17 | 163 | 3.2 | 12.9 | 0.03 | 0.03 | 0.00 | 79 | 1006.4 |
| 20260506125742 | 17 | 213 | 3.2 | 17.7 | 0.00 | 0.00 | 0.00 | 78 | 1006.3 |
| 20260506125247 | 17 | 155 | 1.6 | 11.3 | 0.00 | 0.00 | 0.00 | 78 | 1006.3 |
| 20260506124741 | 17 | 182 | 1.6 | 9.7 | 0.00 | 0.00 | 0.00 | 77 | 1006.3 |
| 20260506124241 | 17 | 154 | 3.2 | 11.3 | 0.00 | 0.00 | 0.00 | 76 | 1006.4 |
| 20260506123742 | 18 | 145 | 0.0 | 17.7 | 0.00 | 0.00 | 0.00 | 75 | 1006.4 |
| 20260506123241 | 18 | 138 | 6.4 | 16.1 | 0.00 | 0.00 | 0.00 | 75 | 1006.4 |
| 20260506122747 | 18 | 162 | 9.7 | 12.9 | 0.00 | 0.00 | 0.00 | 74 | 1006.9 |
| 20260506122241 | 18 | 209 | 1.6 | 16.1 | 0.00 | 0.00 | 0.00 | 73 | 1006.9 |
| 20260506121741 | 18 | 213 | 4.8 | 16.1 | 0.00 | 0.00 | 0.00 | 73 | 1006.9 |
| 20260506121244 | 18 | 236 | 8.0 | 16.1 | 0.00 | 0.00 | 0.00 | 72 | 1006.8 |
| 20260506120741 | 18 | 146 | 6.4 | 12.9 | 0.00 | 0.00 | 0.00 | 71 | 1006.8 |
| 20260506120241 | 18 | 198 | 12.9 | 14.5 | 0.00 | 0.00 | 0.00 | 70 | 1006.8 |
| 20260506115741 | 18 | 179 | 3.2 | 14.5 | 0.00 | 0.00 | 0.00 | 69 | 1006.7 |
| 20260506115244 | 18 | 191 | 3.2 | 17.7 | 0.00 | 0.00 | 0.00 | 68 | 1006.7 |
| 20260506114751 | 18 | 166 | 6.4 | 16.1 | 0.00 | 0.00 | 0.00 | 67 | 1006.7 |
| 20260506114242 | 18 | 232 | 6.4 | 14.5 | 0.00 | 0.00 | 0.00 | 67 | 1006.4 |
| 20260506113748 | 18 | 273 | 1.6 | 25.7 | 0.00 | 0.00 | 0.00 | 67 | 1006.4 |
| 20260506113244 | 18 | 138 | 6.4 | 19.3 | 0.00 | 0.00 | 0.00 | 67 | 1006.4 |
| 20260506112742 | 18 | 266 | 9.7 | 19.3 | 0.00 | 0.00 | 0.00 | 67 | 1006.3 |
| 20260506112241 | 18 | 166 | 16.1 | 22.5 | 0.00 | 0.00 | 0.00 | 67 | 1006.3 |
| 20260506111742 | 18 | 207 | 8.0 | 24.1 | 0.00 | 0.00 | 0.00 | 67 | 1006.3 |
| 20260506111241 | 18 | 206 | 4.8 | 19.3 | 0.00 | 0.00 | 0.00 | 67 | 1006.1 |
| 20260506110747 | 18 | 297 | 8.0 | 24.1 | 0.00 | 0.00 | 0.00 | 67 | 1006.1 |
| 20260506110245 | 18 | 239 | 4.8 | 19.3 | 0.00 | 0.00 | 0.00 | 67 | 1006.1 |
| 20260506105741 | 18 | 153 | 1.6 | 25.7 | 0.00 | 0.00 | 0.00 | 67 | 1005.9 |
| 20260506105241 | 18 | 185 | 8.0 | 19.3 | 0.00 | 0.00 | 0.00 | 67 | 1005.9 |
| 20260506104741 | 18 | 215 | 6.4 | 19.3 | 0.00 | 0.00 | 0.00 | 67 | 1005.9 |
| 20260506104241 | 18 | 196 | 8.0 | 11.3 | 0.00 | 0.00 | 0.00 | 67 | 1005.8 |
| 20260506103742 | 18 | 194 | 6.4 | 19.3 | 0.00 | 0.00 | 0.00 | 67 | 1005.8 |
| 20260506103244 | 18 | 154 | 6.4 | 19.3 | 0.00 | 0.00 | 0.00 | 67 | 1005.8 |
| 20260506102741 | 18 | 167 | 11.3 | 24.1 | 0.00 | 0.00 | 0.00 | 67 | 1005.9 |
| 20260506102247 | 18 | 232 | 9.7 | 20.9 | 0.00 | 0.00 | 0.00 | 67 | 1005.9 |
| 20260506101741 | 18 | 113 | 6.4 | 25.7 | 0.00 | 0.00 | 0.00 | 67 | 1005.9 |
| 20260506101241 | 18 | 202 | 22.5 | 24.1 | 0.00 | 0.00 | 0.00 | 66 | 1005.8 |
| 20260506100745 | 18 | 294 | 9.7 | 19.3 | 0.00 | 0.00 | 0.00 | 66 | 1005.8 |
| 20260506100244 | 18 | 176 | 9.7 | 20.9 | 0.00 | 0.00 | 0.00 | 66 | 1005.8 |
| 20260506095744 | 18 | 261 | 6.4 | 19.3 | 0.00 | 0.00 | 0.00 | 66 | 1006.0 |
| 20260506095241 | 18 | 159 | 3.2 | 17.7 | 0.00 | 0.00 | 0.00 | 66 | 1006.0 |
| 20260506094742 | 18 | 258 | 12.9 | 19.3 | 0.00 | 0.00 | 0.00 | 65 | 1006.0 |
| 20260506094245 | 18 | 156 | 1.6 | 14.5 | 0.00 | 0.00 | 0.00 | 65 | 1006.1 |
| 20260506093746 | 18 | 189 | 8.0 | 22.5 | 0.00 | 0.00 | 0.00 | 65 | 1006.1 |
| 20260506093244 | 18 | 182 | 11.3 | 27.4 | 0.00 | 0.00 | 0.00 | 65 | 1006.1 |
| 20260506092741 | 18 | 140 | 6.4 | 24.1 | 0.00 | 0.00 | 0.00 | 64 | 1006.0 |
| 20260506092247 | 19 | 219 | 12.9 | 19.3 | 0.00 | 0.00 | 0.00 | 64 | 1006.0 |
| 20260506091744 | 19 | 188 | 8.0 | 22.5 | 0.00 | 0.00 | 0.00 | 64 | 1006.0 |
| 20260506091247 | 19 | 198 | 6.4 | 17.7 | 0.00 | 0.00 | 0.00 | 63 | 1006.2 |
| 20260506090747 | 19 | 215 | 6.4 | 22.5 | 0.00 | 0.00 | 0.00 | 63 | 1006.2 |
| 20260506090241 | 19 | 206 | 9.7 | 22.5 | 0.00 | 0.00 | 0.00 | 62 | 1006.2 |